Regional Weather Roundup
Issued by NWS

Home | Current Version | Previous Version | Text Only | Print | Product List | Glossary Off
Versions: 1 2 3 4 5 6 7 8 9 10 11 12 13 14 15 16 17 18 19 20 21 22 23 24 25 26 27 28 29 30 31 32 33 34 35 36 37 38 39 40 41 42 43 44 45 46 47 48 49 50

000
ASUS43 KLMK 271610
RWRKY
KENTUCKY REGIONAL WEATHER ROUNDUP
NATIONAL WEATHER SERVICE LOUISVILLE KY
1200 PM EDT THU APR 27 2017

NOTE "FAIR" INDICATES FEW OR NO CLOUDS BELOW 12,000 FEET
WITH NO SIGNIFICANT WEATHER AND/OR OBSTRUCTIONS TO VISIBILITY.

KYZ001>023-026-027-061>063-070>075-271700-
WESTERN AND SOUTH CENTRAL KENTUCKY

CITY           SKY/WX    TMP DP  RH WIND       PRES   REMARKS
PADUCAH        CLOUDY    53  44  71 SW14      29.79R
HENDERSON      CLOUDY    54  47  77 SW16      29.76R
OWENSBORO      CLOUDY    54  48  80 W9        29.76R
HOPKINSVILLE   CLOUDY    54  50  87 W12       29.79R
BOWLING GREEN  PTSUNNY   62  55  77 W16G24    29.75R
GLASGOW        PTSUNNY   67  57  70 W18G25    29.73R
$$

KYZ024-025-028>034-038-045-046-053-271700-
NORTH CENTRAL KENTUCKY

CITY           SKY/WX    TMP DP  RH WIND       PRES   REMARKS
LOUISVILLE/SDF CLOUDY    64  56  75 W20       29.69R
LOUISVILLE/LOU CLOUDY    65  57  75 SW18G29   29.69R
FORT KNOX      CLOUDY    58  53  85 W16       29.70R
$$

KYZ035>037-039>044-047>052-055>060-089>105-271700-
NORTHEAST KENTUCKY

CITY           SKY/WX    TMP DP  RH WIND       PRES   REMARKS
LEXINGTON      PTSUNNY   69  57  65 SW16G28   29.68R
COVINGTON      PTSUNNY   67  61  81 SW17G24   29.63S
FRANKFORT      PTSUNNY   70  56  61 SW16G24   29.66R
$$

KYZ054-064>069-076>088-106>120-271700-
SOUTHEAST KENTUCKY

CITY           SKY/WX    TMP DP  RH WIND       PRES   REMARKS
JACKSON        CLOUDY    66  58  75 VRB3      29.73R
LONDON         LGT RAIN  63  59  87 S8        29.75R FOG
SOMERSET       CLOUDY    68  57  68 W12G21    29.74R
MIDDLESBORO    LGT RAIN  62  61  96 S3        29.78S
MONTICELLO     PTSUNNY   71  60  68 SW20      29.75R
$$




USA.gov is the U.S. government's official web portal to all federal, state and local government web resources and services.